Location: Poughquag
(41.6090°N, 73.6820°W)
Time: 06:18:47
(UTC-05:00)

STRAND 1 - Pass Details

Date: 29 November 2023
Orbit: 766 x 778 km, 98.4° (Epoch: 24 February)

Event Time Altitude Azimuth Distance (km) Brightness Sun altitude
Rises 05:59:11 0° 178° (S) 3,237 ? -11.2°
Reaches altitude 10° 06:01:33 10° 183° (S) 2,312 ? -10.8°
Maximum altitude 06:06:31 53° 260° (W) 948 ? -9.9°
Drops below altitude 10° 06:11:31 10° 337° (NNW) 2,321 ? -9.0°
Sets 06:13:54 0° 342° (NNW) 3,250 ? -8.6°
